Location: Eurasberg
(48.3353°N, 11.0839°E)
Time: 14:46:52
(UTC+00:00)

Gblst 52 Del rocket - Visible Passes

Search period start: 19 April 2026 00:00
Search period end: 29 April 2026 00:00
Orbit: 805 x 1364 km, 51.5° (Epoch: 19 April)

Date Brightness Start Highest point End Pass type
(mag) Time Alt. Az. Time Alt. Az. Time Alt. Az.
19 Apr 4.8 00:58:18 10° WNW 01:05:30 80° SSW 01:13:41 10° ESE visible
19 Apr 5.6 02:50:27 10° WNW 02:57:04 33° SW 03:04:15 10° SSE visible
19 Apr 4.4 20:22:18 10° WSW 20:28:24 81° SSE 20:35:29 10° ENE visible
19 Apr 4.9 22:14:07 10° W 22:20:37 68° N 22:28:10 10° E visible
20 Apr 4.8 00:06:03 10° WNW 00:13:05 87° NNE 00:21:08 10° ESE visible
20 Apr 5.2 01:57:57 10° WNW 02:04:55 45° SW 02:12:39 10° SSE visible
20 Apr 4.5 19:30:21 10° SW 19:36:12 63° SSE 19:42:56 10° ENE visible
20 Apr 4.8 21:21:50 10° W 21:28:08 72° N 21:35:29 10° ENE visible
20 Apr 4.8 23:13:49 10° WNW 23:20:36 76° NNE 23:28:27 10° E visible
21 Apr 4.9 01:05:37 10° WNW 01:12:41 59° SW 01:20:40 10° SE visible
21 Apr 6.0 02:58:30 10° W 03:03:50 21° SW 03:09:31 10° S visible
21 Apr 4.7 18:38:39 10° SSW 18:44:09 44° SE 18:50:22 10° ENE visible
21 Apr 4.6 20:29:34 10° WSW 20:35:43 80° NNW 20:42:51 10° ENE visible
21 Apr 4.9 22:21:33 10° WNW 22:28:07 70° N 22:35:43 10° E visible
22 Apr 4.7 00:13:21 10° WNW 00:20:22 75° SSW 00:28:22 10° SE visible
22 Apr 5.6 02:05:35 10° WNW 02:11:49 30° SW 02:18:39 10° S visible
22 Apr 4.4 19:37:25 10° WSW 19:43:23 86° SSE 19:50:17 10° ENE visible
22 Apr 4.9 21:29:15 10° W 21:35:37 67° N 21:42:59 10° E visible
22 Apr 4.7 23:21:08 10° WNW 23:27:59 90° E 23:32:42 26° ESE visible
23 Apr 5.2 01:13:02 10° WNW 01:25:10 18° SSE 01:27:09 10° SSE visible
23 Apr 6.6 03:12:38 10° SW 03:12:38 10° SW 03:05:51 - W visible
23 Apr 4.4 18:45:24 10° SW 18:51:11 67° SSE 18:57:47 10° ENE visible
23 Apr 4.8 20:36:59 10° W 20:43:09 70° N 20:50:17 10° ENE visible
23 Apr 4.8 22:28:55 10° WNW 22:35:33 78° NNE 22:40:05 26° E visible
24 Apr 4.9 00:20:41 10° WNW 00:26:53 53° SW 00:26:53 53° SW visible
24 Apr 6.7 02:27:25 - S 02:27:25 - S 02:13:42 10° W visible
24 Apr 4.7 19:44:43 10° WSW 19:50:44 77° NNW 19:57:40 10° ENE visible
24 Apr 4.8 21:36:41 10° WNW 21:43:05 70° N 21:48:52 17° E visible
24 Apr 4.7 23:28:26 10° WNW 23:35:14 70° SSW 23:35:43 68° S visible
25 Apr 6.4 01:20:45 10° W 01:22:35 17° W 01:22:35 17° W visible
25 Apr 4.5 18:52:32 10° WSW 18:58:24 90° NW 19:05:08 10° ENE visible
25 Apr 4.9 20:44:25 10° W 20:50:37 67° N 20:57:48 10° E visible
25 Apr 4.6 22:36:14 10° WNW 22:42:54 86° SSW 22:44:55 52° ESE visible
26 Apr 5.8 00:28:09 10° WNW 00:31:47 28° W 00:31:47 28° W visible
26 Apr 4.8 19:52:09 10° W 19:58:10 68° N 20:05:07 10° ENE visible
26 Apr 4.7 21:44:02 10° WNW 21:50:30 81° NNE 21:54:16 31° ESE visible
26 Apr 5.1 23:35:47 10° WNW 23:41:09 45° WSW 23:41:09 45° WSW visible
27 Apr 4.7 18:59:52 10° W 19:05:45 74° NNW 19:12:30 10° ENE visible
27 Apr 4.8 20:51:49 10° WNW 20:58:05 71° N 21:03:44 17° E visible
27 Apr 4.6 22:43:31 10° WNW 22:50:07 65° SSW 22:50:37 64° S visible
28 Apr 6.5 00:36:00 10° W 00:37:31 15° W 00:37:31 15° W visible
28 Apr 4.8 19:59:34 10° W 20:05:38 67° N 20:12:38 10° E visible
28 Apr 4.6 21:51:20 10° WNW 21:57:50 82° SSW 22:00:10 47° SE visible
28 Apr 5.9 23:43:19 10° WNW 23:47:04 27° WSW 23:47:04 27° WSW visible
